Location: *
(50.6089°N, 2.2719°E)
Time: 15:46:58
(UTC+00:00)

Daily predictions for brighter satellites

Satellite Brightness Start Highest point End
(mag) Time Altitude Azimuth Time Altitude Azimuth Time Altitude Azimuth
Cosmos 1844 Rocket 2.8 17:16:39 10° SSW 17:22:13 62° ESE 17:27:47 10° NE
Unknown 3.5 17:21:36 10° WNW 17:25:05 56° N 17:28:34 10° E
Cosmos 1953 2.4 17:21:38 10° S 17:25:38 62° E 17:29:41 10° NNE
Unknown 3.6 17:23:40 10° WSW 17:27:48 80° SSE 17:31:58 10° ENE
Unknown 3.7 17:23:59 10° WSW 17:28:07 79° SSE 17:32:17 10° ENE
Unknown 3.6 17:24:37 10° WSW 17:28:45 80° SSE 17:32:56 10° ENE
Cosmos 2239 Rocket 4.5 17:23:13 10° N 17:29:24 73° E 17:35:31 10° SSE
Okean-O 2.7 17:26:57 10° SSE 17:31:24 85° WSW 17:35:52 10° NNW
SMAP 3.8 17:27:15 10° S 17:31:50 59° W 17:36:27 10° NNW
Unknown 3.6 17:28:13 10° WSW 17:32:22 83° SSE 17:36:32 10° ENE
Unknown 3.6 17:29:00 10° WSW 17:33:09 83° SSE 17:37:19 10° ENE
FengYun 1-2 T 4.3 17:28:25 10° SSE 17:33:56 59° ENE 17:39:26 10° N
Cosmos 1758 3.8 17:30:02 10° SSW 17:33:59 65° WNW 17:37:56 10° N
Falcon 9 debris 3.3 17:31:15 10° WNW 17:34:40 60° N 17:38:02 10° E
CZ-4C R/B 4.2 17:27:58 10° NW 17:34:46 46° WSW 17:42:25 10° S
Unknown 3.6 17:30:45 10° WSW 17:34:55 86° SSE 17:39:05 10° ENE
BREEZE-M DEB (TANK) 3.5 17:31:02 10° WNW 17:35:04 83° SSW 17:44:37 10° ESE
Lacrosse 5 2.2 17:31:45 10° WNW 17:36:44 53° NNE 17:41:41 10° E
COSMO-SKYMED 1 3.0 17:33:20 10° NNE 17:37:26 39° E 17:41:31 10° SSE
Meteor 1-16 Rocket 4.4 17:32:13 10° SSE 17:37:30 48° E 17:42:41 10° NNE
Cosmos 1821 Rocket 4.0 17:31:24 10° N 17:37:33 90° E 17:43:43 10° S
Cosmos 1605 Rocket 4.3 17:31:57 10° N 17:37:51 43° ENE 17:43:39 10° SE
Unknown 3.6 17:34:04 10° WSW 17:38:13 88° SSE 17:42:20 10° ENE
Cosmos 968 Rocket 4.3 17:33:08 10° NNW 17:38:19 57° WSW 17:43:27 10° S
Unknown 3.6 17:34:23 10° WSW 17:38:31 87° SSE 17:42:37 10° ENE
Unknown 3.6 17:35:38 10° WSW 17:39:47 88° SSE 17:43:50 11° ENE
Cosmos 1908 4.2 17:38:40 10° SSE 17:41:55 26° E 17:45:11 10° NNE
Unknown 3.6 17:38:48 10° WSW 17:42:57 89° SSE 17:46:52 12° ENE
Cosmos 1825 Rocket 4.2 17:39:52 10° NNW 17:44:12 62° W 17:48:31 10° S
Unknown 3.6 17:42:15 10° WSW 17:46:25 87° NNW 17:50:11 12° ENE
Cosmos 2278 Rocket 3.1 17:41:49 10° SSE 17:46:28 27° ESE 17:51:08 10° NE
Cosmos 1934 Rocket 4.0 17:40:28 10° N 17:46:48 71° ENE 17:53:10 10° SSE
ATLAS 5 CENTAUR R/B 2.0 17:42:28 10° SW 17:46:48 67° NW 17:51:46 10° NE
Cosmos 1953 Rocket 3.7 17:43:03 10° NNW 17:47:28 82° W 17:51:48 10° S
Unknown 3.4 17:44:18 10° WNW 17:47:47 62° N 17:50:40 14° E
Unknown 3.6 17:43:56 10° WSW 17:48:06 86° NNW 17:51:48 13° ENE
Unknown 3.6 17:45:35 10° WSW 17:49:44 85° NNW 17:53:23 13° ENE
Nadezhda 3 Rocket 4.1 17:44:22 10° S 17:50:41 87° W 17:57:06 10° N
Unknown 3.6 17:47:14 10° WSW 17:51:24 84° NNW 17:54:59 14° ENE
Cosmos 1844 3.7 17:45:47 10° SSW 17:51:30 79° ESE 17:57:19 10° NNE
Lacrosse 5 rocket 3.6 17:48:45 10° W 17:51:44 22° SW 17:54:48 10° S
Cosmos 1535 Rocket 4.4 17:47:20 10° N 17:53:37 80° E 17:59:45 10° SSE
Unknown 3.6 17:50:37 10° WSW 17:54:46 82° NNW 17:58:12 15° ENE
Cosmos 1470 4.3 17:51:02 10° SW 17:54:47 40° WNW 17:58:35 10° N
Ariane Rocket 3.6 17:50:34 10° SE 17:55:11 36° ENE 17:59:50 10° N
Unknown 3.6 17:52:19 10° WSW 17:56:29 81° NNW 17:59:51 15° ENE
Unknown 3.7 17:53:55 10° WSW 17:58:04 80° NNW 18:01:22 16° ENE
Unknown 3.7 17:55:33 10° WSW 17:59:43 80° NNW 18:02:57 16° ENE
Abrixas rocket 4.0 17:57:57 10° S 17:59:51 15° SSE 18:00:46 14° SE
Cosmos 1939 Rocket 3.4 17:56:22 10° SE 18:00:01 36° ENE 18:03:46 10° N
Unknown 3.7 17:55:59 10° WSW 18:00:09 79° NNW 18:03:22 16° ENE
Cosmos 1461 3.0 17:57:04 10° NNW 18:01:03 52° NE 18:04:27 14° ESE
COBE Rocket 4.0 17:55:55 10° NNE 18:01:08 84° ESE 18:06:14 10° SSW
Cosmos 1992 Rocket 4.3 17:56:02 10° SSW 18:01:15 73° WNW 18:06:30 10° NNE
Cosmos 1606 Rocket 3.9 17:57:26 10° SSW 18:01:48 68° WNW 18:06:09 10° N
Cosmos 1328 3.7 17:57:48 10° N 18:01:50 82° E 18:05:47 10° SSE
Cosmos 1242 Rocket 2.7 17:58:56 10° NNW 18:02:38 79° W 18:06:19 10° S
Unknown 3.6 17:58:42 10° WSW 18:02:52 80° NNW 18:05:58 17° ENE
Unknown 3.7 18:02:05 10° WSW 18:06:15 78° NNW 18:09:13 18° ENE
CSL-04 Rocket 3.7 18:01:37 10° SSE 18:07:09 82° ENE 18:12:40 10° NNW
Unknown 3.7 18:03:43 10° WSW 18:07:52 77° NNW 18:10:46 19° ENE
Cosmos 2084 Rocket 4.2 18:04:23 10° NW 18:08:33 38° NNE 18:11:03 20° E
Cosmos 1726 1.9 18:05:36 10° S 18:09:14 74° E 18:12:53 10° NNE
Cosmos 2263 Rocket 4.3 18:05:14 10° W 18:09:43 24° NW 18:14:13 10° NNE
Unknown 3.7 18:05:38 10° W 18:09:47 74° NNW 18:12:37 20° ENE
Unknown 3.5 18:07:04 10° WNW 18:10:07 51° SSW 18:12:19 17° SE
Unknown 3.7 18:07:01 10° W 18:11:10 76° NNW 18:13:56 20° ENE
Unknown 3.7 18:08:43 10° W 18:12:52 75° NNW 18:15:34 21° ENE
Cosmos 1777 Rocket 3.9 18:07:37 10° NNW 18:12:52 86° ENE 18:18:05 10° SSE
HJ-1C 4.2 18:14:01 23° ESE 18:15:17 31° ENE 18:18:19 10° N
Unknown 3.7 18:12:05 10° W 18:16:14 73° NNW 18:18:48 22° ENE
NOAA 11 4.2 18:12:04 10° SSE 18:17:25 62° ENE 18:22:47 10° N
Unknown 3.7 18:13:45 10° W 18:17:54 73° NNW 18:20:24 23° ENE
ATLAS CENTAUR R/B 3.8 18:16:22 10° NNW 18:19:01 15° N 18:21:36 10° NE
Unknown 3.7 18:15:25 10° W 18:19:34 72° NNW 18:22:00 24° ENE
Cosmos 2100 Rocket 4.4 18:14:18 10° N 18:20:05 38° ENE 18:25:37 11° SE
Cosmos 1812 Rocket 4.2 18:17:14 10° SSE 18:21:14 34° E 18:25:16 10° NNE
Unknown 3.7 18:17:05 10° W 18:21:14 71° NNW 18:23:35 25° ENE
ARGOS 4.3 18:19:44 21° E 18:21:19 24° ENE 18:25:32 10° N
Cosmos 1833 Rocket 2.6 18:17:13 10° NNW 18:22:53 77° ENE 18:28:29 10° SE
Unknown 3.6 18:20:23 10° WNW 18:24:05 60° N 18:25:43 30° ENE
Cosmos 1076 Rocket 3.9 18:20:04 10° N 18:24:14 41° ENE 18:27:00 19° SE
Unknown 3.7 18:20:24 10° W 18:24:32 70° NNW 18:26:46 26° ENE
CZ-4 R/B 2.3 18:20:52 10° S 18:24:58 54° W 18:29:09 10° NNW
SKYMED 2 3.8 18:21:14 10° N 18:25:35 73° WNW 18:29:55 10° SSW
Unknown 3.8 18:21:48 10° W 18:25:57 69° N 18:28:06 27° ENE
BREEZE-M DEB (TANK) 3.9 18:17:02 10° SW 18:26:10 33° SSE 18:28:00 24° ESE
Unknown 3.8 18:22:21 10° W 18:26:30 67° N 18:28:37 27° ENE
Unknown 3.8 18:24:00 10° W 18:28:08 67° N 18:30:12 28° ENE
CZ-2D R/B 3.1 18:25:24 10° SSE 18:29:15 78° ENE 18:33:09 10° N
YAOGAN 1 3.1 18:26:42 10° S 18:30:59 62° W 18:35:17 10° NNW
Unknown 3.8 18:27:06 10° W 18:31:14 68° N 18:33:10 30° ENE
Cosmos 489 Rocket 4.4 18:27:04 10° SSW 18:33:17 85° ESE 18:39:31 10° NNE
Cosmos 1153 Rocket 4.4 18:27:45 10° N 18:33:55 70° ENE 18:40:02 10° SSE
Unknown 3.8 18:30:26 10° W 18:34:33 67° N 18:36:21 32° ENE
Unknown 3.8 18:31:26 10° W 18:35:31 64° N 18:37:13 33° ENE
Unknown 3.8 18:32:07 10° W 18:36:15 66° N 18:37:59 33° ENE
H-2A R/B 2.9 18:35:45 28° E 18:37:03 31° ENE 18:41:46 10° N
Unknown 3.8 18:33:45 10° W 18:37:53 66° N 18:39:33 34° ENE
Unknown 3.8 18:33:56 10° W 18:37:57 61° N 18:39:29 35° ENE
Unknown 3.8 18:35:27 10° W 18:39:34 65° N 18:41:10 35° ENE
Meteor 2-10 4.2 18:34:33 10° SSW 18:39:36 70° WNW 18:44:39 10° N
Unknown 3.6 18:38:25 10° WNW 18:42:14 60° N 18:43:14 42° ENE
BREEZE-M DEB (TANK) 3.6 18:39:44 10° SW 18:42:39 25° S 18:42:39 25° S
Shenzhou-11 Module 4.2 18:42:27 10° SW 18:44:07 15° S 18:44:07 15° S
ADEOS Rocket 4.0 18:38:44 10° NNE 18:45:35 33° E 18:52:01 10° SSE
Unknown 3.8 18:42:03 10° W 18:46:10 64° N 18:47:29 40° ENE
Cosmos 2082 Rocket 2.1 18:41:26 10° NNW 18:47:12 82° ENE 18:51:05 21° SSE
Unknown 3.8 18:43:47 10° W 18:47:55 64° N 18:49:09 41° ENE
Unknown 3.8 18:45:25 10° W 18:49:33 63° N 18:50:43 42° NE
Unknown 3.8 18:47:05 10° W 18:51:12 63° N 18:52:18 44° NE
Unknown 3.6 18:48:43 10° WNW 18:52:36 60° N 18:53:16 51° NE
Unknown 3.8 18:48:45 10° W 18:52:53 63° N 18:53:54 45° NE
FALCON 9 DEB 3.1 18:49:56 10° WNW 18:53:24 74° SSW 18:53:41 69° SSE
Unknown 3.2 18:51:30 10° WNW 18:54:53 65° SSW 18:55:05 63° S
Cosmos 2151 4.2 18:51:09 10° N 18:53:49 27° NE 18:53:49 27° NE
Cosmos 1898 Rocket 3.8 18:50:33 10° NNW 18:55:39 48° ENE 18:56:42 42° E
Gbstr 26 Del rocket 4.3 18:49:43 10° WNW 18:55:47 64° SSW 18:59:47 28° SE
Unknown 3.8 18:52:07 10° W 18:56:14 62° N 18:57:08 48° NE
Starlink (trailer) 3.8 18:53:46 10° W 18:57:53 62° N 18:58:42 50° NE
Cosmos 292 Rocket 4.5 18:54:06 10° SW 18:58:45 53° WNW 19:03:26 10° NNE
Unknown 3.8 18:55:26 10° W 18:59:33 62° N 19:00:17 51° NE
Cosmos 2058 2.8 18:56:54 10° N 19:01:08 68° ENE 19:01:38 61° ESE
Unknown 3.8 18:57:05 10° W 19:01:12 62° N 19:01:53 52° NE
Cosmos 2061 Rocket 4.1 18:55:54 10° N 19:02:02 52° ENE 19:04:09 37° SE
SJ-6B 3.7 19:03:36 34° NNE 19:03:36 34° NNE 19:06:02 10° N
Unknown 3.2 18:58:56 10° WNW 19:02:22 74° SW 19:02:22 74° SW
ATLAS 3B R/B 4.3 18:59:48 10° SSE 19:01:17 15° SSE 19:01:17 15° SSE
Cosmos 1844 Rocket 4.4 19:01:31 10° WSW 19:06:30 31° NW 19:11:30 10° NNE
Unknown 3.8 19:03:26 10° W 19:07:33 61° N 19:07:57 57° NNE
Unknown 3.8 19:03:46 10° W 19:07:53 61° N 19:08:16 57° NNE
Unknown 3.8 19:04:24 10° W 19:08:31 61° N 19:08:52 58° NNE
Falcon 9 debris 3.8 19:08:20 10° WNW 19:11:19 50° WSW 19:11:19 50° WSW
CZ-2C R/B 3.8 19:12:02 41° ENE 19:12:04 41° ENE 19:17:26 10° N
Unknown 3.8 19:07:58 10° W 19:12:05 61° N 19:12:18 60° NNE
Unknown 3.8 19:08:48 10° W 19:12:55 61° N 19:13:06 60° NNE
In-Cosmos 22 Rocket 4.0 19:08:29 10° N 19:13:53 76° ENE 19:15:44 42° SSE
Unknown 3.8 19:10:35 10° W 19:14:42 61° N 19:14:48 61° N
CENTAUR R/B 4.4 19:10:52 10° S 19:11:09 11° S 19:11:09 11° S
Unknown 3.9 19:13:54 10° W 19:17:58 61° N 19:17:58 61° N
Unknown 3.9 19:14:12 10° W 19:18:16 61° N 19:18:16 61° N
SJ 16-02 2.2 19:14:20 10° NNW 19:17:24 36° NNE 19:17:24 36° NNE
Cosmos 1459 Rocket 3.9 19:12:25 10° N 19:18:40 86° E 19:23:02 21° S
Unknown 3.9 19:15:28 10° W 19:19:29 60° N 19:19:29 60° N
Lacrosse 5 2.2 19:14:51 10° WNW 19:19:50 58° SW 19:20:56 47° S
Unknown 4.0 19:18:38 10° W 19:22:31 59° NNW 19:22:31 59° NNW
Unknown 4.4 19:21:35 10° WNW 19:24:07 39° WSW 19:24:07 39° WSW
Unknown 4.0 19:22:06 10° W 19:25:50 57° NNW 19:25:50 57° NNW
Unknown 4.1 19:23:47 10° W 19:27:27 56° NNW 19:27:27 56° NNW
Unknown 4.2 19:25:26 10° W 19:29:01 55° NW 19:29:01 55° NW
Cosmos 2278 Rocket 2.6 19:24:32 10° SW 19:30:09 62° NW 19:35:50 10° NNE
Resurs 01 Rocket 3.3 19:32:44 23° NNE 19:32:44 23° NNE 19:34:39 10° N
USA 238 DEB 3.5 19:24:20 10° SSW 19:31:03 77° SE 19:33:52 39° NE
USA 238 3.5 19:24:27 10° SSW 19:31:10 76° SE 19:33:55 39° NE
Unknown 4.2 19:27:06 10° WNW 19:30:37 54° NW 19:30:37 54° NW
ATLAS 5 CENTAUR R/B 3.7 19:28:33 10° WNW 19:32:23 24° NNW 19:34:48 18° NNE
Ariane Rocket 4.3 19:29:23 10° SSW 19:34:07 38° W 19:38:54 10° NNW
Unknown 4.3 19:30:29 10° WNW 19:33:51 51° NW 19:33:51 51° NW
Okean 3 Rocket 3.9 19:30:16 10° N 19:34:09 64° NNW 19:34:09 64° NNW
Unknown 4.4 19:32:11 10° WNW 19:35:30 50° NW 19:35:30 50° NW
Unknown 4.5 19:33:47 10° WNW 19:37:01 48° NW 19:37:01 48° NW
Cosmos 1802 Rocket 4.1 19:36:31 10° NNW 19:42:59 78° W 19:45:54 35° S
Cosmos 2173 Rocket 4.3 19:36:58 10° NNW 19:43:12 65° W 19:47:19 22° S
Cosmos 1864 Rocket 4.3 19:41:09 10° N 19:47:20 81° E 19:47:35 79° ESE
Cosmos 2084 Rocket 4.5 19:43:55 10° NW 19:47:36 44° WSW 19:47:36 44° WSW
Cosmos 1937 Rocket 3.7 19:47:01 10° NNW 19:51:20 63° NNW 19:51:20 63° NNW
Cosmos 2123 Rocket 4.4 19:56:11 51° NNE 19:56:11 51° NNE 20:00:51 10° NNE
NOSS 3-2 (A) 3.3 19:50:10 10° SW 19:56:02 88° SSE 19:56:02 88° SSE
Cosmos 990 Rocket 4.3 19:52:27 10° NNW 19:57:16 63° W 19:57:16 63° W
SPOT 3 Rocket 4.0 19:58:35 55° WSW 19:58:57 57° W 20:04:06 10° NNW
ATLAS CENTAUR R/B 3.6 19:55:37 10° NNW 19:57:49 21° N 19:57:49 21° N
ARGOS 3.3 20:01:16 69° W 20:01:16 69° W 20:06:33 10° NNW
Cosmos 1725 Rocket 3.9 19:56:29 10° NNW 20:02:47 82° W 20:03:03 79° SW
Cosmos 2233 Rocket 4.3 19:59:16 10° N 20:04:19 57° NNE 20:04:19 57° NNE
H-2A R/B 2.9 20:16:22 49° W 20:16:22 49° W 20:21:32 10° NNW
Cosmos 2227 Rocket 4.5 20:25:45 10° N 20:27:46 14° NNE 20:27:46 14° NNE
Cosmos 2082 Rocket 4.4 20:26:38 10° NW 20:30:36 20° W 20:32:59 15° SW
ADEOS Rocket 3.8 20:23:52 10° NNE 20:31:33 67° WNW 20:38:46 10° SSW
Cosmos 2297 Rocket 4.5 20:31:01 10° N 20:32:56 14° NNE 20:32:56 14° NNE
SJ 16-02 4.2 20:53:25 10° NW 20:54:24 15° NW 20:54:24 15° NW
